Weather History for Wiscasset, ME

Change the Weather History Date:

Tuesday, May 28, 2013

  Actual Average Record
Temperature  
Mean Temperature 53 °F -  
Max Temperature 71 °F 63 °F 82 °F (2006)
Min Temperature 36 °F 42 °F 34 °F (1997)
Degree Days  
Heating Degree Days 12    
Growing Degree Days 3 (Base 50)    
Moisture  
Dew Point 37 °F    
Average Humidity 59    
Maximum Humidity 96    
Minimum Humidity 24    
Precipitation  
Precipitation 0.00 in - - ()
Sea Level Pressure  
Sea Level Pressure 30.23 in    
Wind  
Wind Speed 3 mph (SSW)    
Max Wind Speed 15 mph    
Max Gust Speed 21 mph    
Visibility 10 miles    
Events      
Averages and records for this station are not official NWS values.
T = Trace of Precipitation, MM = Missing Value Source: NWS Daily Summary

Daily Weather History Graph

Daily Weather History Graph

Search for Another Location

Airport:

Trip Planner

Search our weather history database for the weather conditions in past years. The results will help you decide how hot, cold, wet, or windy it might be!

Date:

Astronomy

May. 28, 2013 Rise Set
Actual Time 5:01 AM EDT 8:11 PM EDT
Civil Twilight 4:26 AM EDT 8:46 PM EDT
Nautical Twilight 3:41 AM EDT 9:31 PM EDT
Astronomical Twilight 2:47 AM EDT 10:26 PM EDT
Moon 11:28 PM EDT (5/28) 8:48 AM EDT (5/28)
Length of Visible Light 16h 20m
Length of Day
15h 10m
Waning Gibbous, 83% of the Moon is Illuminated
May 28
Waning Gibbous
May 31
Last Quarter
Jun 8
New
Jun 16
First Quarter
Jun 23
Full

Hourly Weather History & Observations

Time (EDT) Temp. Dew Point Humidity Pressure Visibility Wind Dir Wind Speed Gust Speed Precip Events Conditions
12:53 AM 41.0 °F 37.9 °F 89% 30.19 in 10.0 mi Calm Calm - N/A   Clear
1:53 AM 39.0 °F 37.0 °F 93% 30.20 in 10.0 mi Calm Calm - N/A   Clear
2:53 AM 37.9 °F 36.0 °F 93% 30.20 in - Calm Calm - N/A   Clear
3:53 AM 37.9 °F 35.1 °F 89% 30.21 in - Calm Calm - N/A   Clear
4:53 AM 36.0 °F 34.0 °F 93% 30.22 in - Calm Calm - N/A   Clear
5:53 AM 37.0 °F 36.0 °F 96% 30.23 in - Calm Calm - N/A   Clear
6:53 AM 46.0 °F 42.1 °F 86% 30.24 in - Calm Calm - N/A   Clear
7:53 AM 55.9 °F 43.0 °F 62% 30.25 in 10.0 mi Calm Calm - N/A   Clear
8:53 AM 61.0 °F 41.0 °F 48% 30.25 in 10.0 mi WSW 3.5 mph - N/A   Clear
9:53 AM 64.9 °F 41.0 °F 42% 30.25 in 10.0 mi Variable 4.6 mph - N/A   Clear
10:53 AM 68.0 °F 37.0 °F 32% 30.25 in 10.0 mi SW 10.4 mph - N/A   Clear
11:53 AM 70.0 °F 37.0 °F 30% 30.25 in 10.0 mi SSW 9.2 mph 18.4 mph N/A   Clear
12:53 PM 70.0 °F 33.1 °F 26% 30.24 in 10.0 mi SSW 9.2 mph 17.3 mph N/A   Clear
1:53 PM 70.0 °F 33.1 °F 26% 30.23 in 10.0 mi SSW 15.0 mph 20.7 mph N/A   Clear
2:53 PM 69.1 °F 30.9 °F 24% 30.23 in 10.0 mi SSW 11.5 mph 18.4 mph N/A   Clear
3:53 PM 68.0 °F 34.0 °F 28% 30.23 in 10.0 mi SSW 9.2 mph 18.4 mph N/A   Clear
4:53 PM 66.0 °F 35.1 °F 32% 30.23 in 10.0 mi SSW 9.2 mph - N/A   Clear
5:53 PM 64.9 °F 34.0 °F 32% 30.22 in 10.0 mi South 8.1 mph - N/A   Clear
6:53 PM 63.0 °F 35.1 °F 35% 30.21 in 10.0 mi Variable 3.5 mph - N/A   Clear
7:53 PM 60.1 °F 35.1 °F 39% 30.22 in 10.0 mi South 3.5 mph - N/A   Clear
8:53 PM 51.1 °F 43.0 °F 74% 30.23 in 10.0 mi Calm Calm - N/A   Clear
9:53 PM 48.0 °F 42.1 °F 80% 30.24 in 10.0 mi Calm Calm - N/A   Clear
10:53 PM 46.9 °F 43.0 °F 86% 30.23 in 10.0 mi Calm Calm - N/A   Clear
11:53 PM 46.9 °F 43.0 °F 86% 30.23 in 10.0 mi Calm Calm - N/A   Clear